[[{"header":{"parameterUnit":"m.s-1","parameterCategory":1,"la1":30.2991,"la2":30.254,"lo1":-89.0895,"lo2":-89.0444,"dy":0.0017,"dx":0.0017,"nx":28,"ny":28,"refTime":"2025-08-12T21:00:00:Z","depth":0,"parameterNumber":2,"parameterNumberName":"U-component_of_WINDS"},"data":[0,0,0,0,0,0,0,0,0,0,0,0,0,0,0,0,0,0,0,0,0,0,0,0,0,0,0,0,0,0,0,0,0,0,0,0,0,0,0,0,0,0,0,0,0,0,0,0,0,0,0,0,0,0,0,0,0,0,0.2909,0.2908,0,0.2855,0.2854,0.2853,0.2839,0.2839,0.284,0.284,0.2781,0.2779,0.2777,0,0,0,0,0,0,0,0,0,0,0,0,0,0.2998,0.2997,0.2909,0.2908,0.2908,0.2855,0.2854,0.2853,0.2839,0.2839,0.284,0.284,0.2781,0.2779,0.2777,0,0,0,0,0,0,0,0,0,0,0,0,0,0.2953,0.2996,0.2909,0.2894,0.2892,0.2855,0.2854,0.2853,0.2839,0.2839,0.284,0.284,0.2782,0.2779,0.2776,0.2749,0,0,0.2768,0.2767,0,0,0,0,0,0,0,0,0.2956,0.295,0.2897,0.2895,0.2893,0.2854,0.2864,0.2818,0.2839,0.2859,0.284,0.2841,0.2804,0.28,0.2788,0.2746,0.2743,0.2768,0.2766,0.2765,0.2764,0,0,0,0,0,0,0,0.2959,0.2952,0.2887,0.2896,0.2894,0.289,0.2884,0.2855,0.2829,0.2857,0.2856,0.285,0.2803,0.2791,0.2787,0.2743,0.2768,0.2765,0.2763,0.2762,0.2677,0.2677,0,0,0,0,0,0,0.2965,0.2955,0.2889,0.2886,0.2926,0.2888,0.2881,0.2866,0.283,0.2825,0.285,0.285,0.2796,0.279,0.2785,0.2751,0.2765,0.2762,0.276,0.2678,0.2677,0.2676,0,0,0,0,0,0,0.2967,0.2959,0.2891,0.292,0.2911,0.2886,0.2869,0.2865,0.2852,0.2824,0.2819,0.2842,0.2796,0.2789,0.2759,0.2749,0.2761,0.2758,0.2678,0.2677,0.2677,0.2683,0,0,0,0,0,0,0.297,0.296,0.295,0.292,0.291,0.2866,0.2868,0.2863,0.2848,0.2847,0.2816,0.2811,0.2796,0.2763,0.2756,0.2745,0.2756,0.2679,0.2678,0.2677,0.2683,0.2682,0.2682,0,0,0,0,0,0.2973,0.2952,0.2949,0.2941,0.2896,0.2866,0.286,0.2844,0.2847,0.2836,0.2819,0.2812,0.2751,0.276,0.2752,0.274,0.2679,0.2678,0.2677,0.2684,0.2683,0.2682,0,0,0,0,0,0,0.2979,0.2948,0.2944,0.2913,0.2893,0.2864,0.2849,0.2843,0.282,0.282,0.2801,0.2794,0.2765,0.2749,0.276,0.2713,0.2715,0.2712,0.2723,0.2722,0.2721,0.2725,0.2753,0,0,0,0,0,0.2978,0.2957,0.293,0.2905,0.2895,0.2874,0.286,0.2851,0.2828,0.2818,0.2798,0.2776,0.2752,0.2736,0.2712,0.2682,0.2675,0.267,0.2669,0.2668,0.2666,0.265,0.2648,0.2672,0.2672,0.2672,0,0,0.2973,0.2953,0.294,0.2906,0.2889,0.2867,0.2867,0.2843,0.2827,0.2814,0.2785,0.277,0.2743,0.2714,0.2699,0.27,0.2658,0.2667,0.2667,0.2664,0.2648,0.2646,0.2644,0.2671,0.2671,0.2672,0,0,0.2953,0.2936,0.2914,0.2898,0.2873,0.2859,0.2854,0.2827,0.2817,0.2788,0.2779,0.2759,0.2717,0.27,0.2685,0.2662,0.2655,0.2655,0.2649,0.2634,0.2632,0.2631,0.2623,0.262,0.2653,0.2653,0.2653,0,0.295,0.2918,0.2904,0.2882,0.2867,0.2857,0.2835,0.282,0.2787,0.2777,0.2779,0.2729,0.271,0.2677,0.2672,0.266,0.2654,0.2658,0.2634,0.2632,0.263,0.2623,0.262,0.2653,0.2653,0.2653,0.2653,0,0.2915,0.2893,0.2879,0.285,0.2834,0.2812,0.2795,0.278,0.2773,0.2759,0.2731,0.2709,0.2681,0.2673,0.2664,0.2638,0.264,0.2638,0.264,0.2628,0.2621,0.2618,0.2653,0.2653,0.2653,0.2653,0,0,0.2896,0.2862,0.2857,0.2845,0.2818,0.28,0.2778,0.2753,0.2741,0.272,0.2702,0.2669,0.2668,0.2651,0.2641,0.2628,0.2612,0.2628,0.2627,0.2626,0.2584,0.2585,0.2582,0.2608,0.2608,0.2607,0.2586,0,0.2873,0.2834,0.2823,0.279,0.277,0.2762,0.2743,0.2725,0.2712,0.2693,0.2679,0.2656,0.2656,0.2647,0.2633,0.2617,0.2604,0.2618,0.259,0.259,0.2597,0.2578,0.2579,0.256,0.2583,0.2583,0.2582,0,0.284,0.2821,0.2787,0.2765,0.2756,0.2739,0.2716,0.2698,0.2677,0.2669,0.2653,0.2644,0.2621,0.2626,0.2595,0.2605,0.2594,0.2584,0.2583,0.2579,0.2585,0.2574,0.2553,0.2551,0.2578,0.2578,0.2578,0,0.283,0.2795,0.2771,0.2761,0.2734,0.2722,0.2711,0.269,0.2677,0.2657,0.2648,0.2625,0.2612,0.2595,0.2581,0.2585,0.2551,0.2554,0.2543,0.2544,0.2535,0.2536,0.2513,0.2528,0.2528,0.2528,0.2528,0,0.2805,0.2785,0.2766,0.2751,0.2729,0.2716,0.2694,0.2681,0.2664,0.2647,0.2638,0.2621,0.2604,0.2585,0.2574,0.255,0.2544,0.2537,0.2534,0.2537,0.2538,0.2529,0.2529,0.2528,0.2528,0.2528,0.2528,0,0.2789,0.2776,0.2749,0.2727,0.2721,0.2705,0.2686,0.2671,0.266,0.2638,0.2632,0.2613,0.2591,0.2576,0.2547,0.2539,0.2514,0.2511,0.2521,0.252,0.251,0.2511,0.2479,0.2474,0.2494,0.2494,0.2493,0,0.2773,0.2758,0.2735,0.2724,0.2712,0.2693,0.2681,0.2668,0.2654,0.2631,0.2619,0.2597,0.2579,0.2544,0.2527,0.2506,0.2502,0.2493,0.2499,0.2503,0.2502,0.2503,0.2502,0.2491,0.2491,0.2491,0.2491,0,0.2748,0.2743,0.2725,0.2706,0.2691,0.2674,0.2657,0.2648,0.2633,0.2618,0.2597,0.2583,0.2555,0.2533,0.251,0.2498,0.2492,0.249,0.2486,0.2489,0.2496,0.2492,0.2518,0.249,0.249,0.249,0.249,0.249,0.2732,0.2718,0.2701,0.2682,0.2669,0.2654,0.264,0.2628,0.261,0.2587,0.258,0.2558,0.2539,0.2509,0.2496,0.2479,0.2479,0.2474,0.2472,0.2471,0.2471,0.25,0.2474,0.2474,0.2474,0.2474,0.2474,0,0.2706,0.2695,0.2678,0.2656,0.2641,0.2639,0.2622,0.2609,0.259,0.2574,0.2557,0.2533,0.2512,0.2496,0.2474,0.2464,0.2461,0.2459,0.2459,0.2456,0.2472,0.2477,0.2462,0.2462,0.2462,0.2462,0.2462,0.2462,0.2691,0.2669,0.2662,0.2634,0.2623,0.2602,0.2592,0.2579,0.2566,0.254,0.2524,0.2514,0.2497,0.2476,0.2457,0.2453,0.2445,0.2444,0.2439,0.2453,0.2455,0.2456,0.2461,0.2442,0.2442,0.2425,0.2425,0.2424]},{"header":{"parameterUnit":"m.s-1","parameterCategory":1,"la1":30.2991,"la2":30.254,"lo1":-89.0895,"lo2":-89.0444,"dy":0.0017,"dx":0.0017,"nx":28,"ny":28,"refTime":"2025-08-12T21:00:00:Z","depth":0,"parameterNumber":3,"parameterNumberName":"V-component_of_WINDS"},"data":[0,0,0,0,0,0,0,0,0,0,0,0,0,0,0,0,0,0,0,0,0,0,0,0,0,0,0,0,0,0,0,0,0,0,0,0,0,0,0,0,0,0,0,0,0,0,0,0,0,0,0,0,0,0,0,0,0,0,-2.0045,-2.0046,0,-2.0086,-2.0087,-2.0087,-2.006,-2.0059,-2.0058,-2.0057,-2.0096,-2.0098,-2.01,0,0,0,0,0,0,0,0,0,0,0,0,0,-1.9939,-1.9941,-2.0045,-2.0046,-2.0046,-2.0086,-2.0087,-2.0087,-2.0061,-2.0059,-2.0058,-2.0056,-2.0095,-2.0098,-2.01,0,0,0,0,0,0,0,0,0,0,0,0,0,-1.9983,-1.9942,-2.0045,-2.0038,-2.0037,-2.0086,-2.0087,-2.0087,-2.0061,-2.0059,-2.0057,-2.0055,-2.0094,-2.0097,-2.0101,-2.0158,0,0,-2.0111,-2.0112,0,0,0,0,0,0,0,0,-1.998,-1.9987,-2.0038,-2.0038,-2.0038,-2.0066,-2.0064,-2.0111,-2.0061,-2.0052,-2.0057,-2.0055,-2.0087,-2.0091,-2.0103,-2.016,-2.0161,-2.0111,-2.0113,-2.0114,-2.0115,0,0,0,0,0,0,0,-1.9977,-1.9985,-2.0061,-2.0039,-2.0039,-2.0031,-2.0035,-2.0072,-2.0079,-2.0053,-2.0051,-2.0056,-2.0087,-2.01,-2.0103,-2.0162,-2.0111,-2.0114,-2.0116,-2.0117,-2.0266,-2.0268,0,0,0,0,0,0,-1.9976,-1.9983,-2.006,-2.0062,-2.0004,-2.0034,-2.0039,-2.0059,-2.0079,-2.008,-2.0058,-2.0055,-2.0095,-2.01,-2.0105,-2.0172,-2.0114,-2.0117,-2.0119,-2.0264,-2.0266,-2.0268,0,0,0,0,0,0,-1.9973,-1.9983,-2.0058,-2.0022,-2.0031,-2.0038,-2.0061,-2.0061,-2.0074,-2.0083,-2.0083,-2.007,-2.0094,-2.01,-2.0145,-2.0173,-2.0119,-2.0122,-2.0261,-2.0265,-2.0267,-2.0308,0,0,0,0,0,0,-1.997,-1.9982,-2.0005,-2.0023,-2.0033,-2.0099,-2.0063,-2.0063,-2.008,-2.0076,-2.0094,-2.0095,-2.0093,-2.014,-2.0148,-2.0177,-2.0124,-2.0259,-2.0263,-2.0266,-2.0304,-2.0312,-2.0319,0,0,0,0,0,-1.9967,-2.0015,-2.0007,-2.0016,-2.0062,-2.0101,-2.0107,-2.0103,-2.0082,-2.0105,-2.011,-2.0095,-2.0169,-2.0145,-2.0153,-2.0184,-2.0257,-2.0262,-2.0266,-2.0301,-2.0311,-2.0319,0,0,0,0,0,0,-2.0,-2.0017,-2.0008,-2.0063,-2.0081,-2.0096,-2.0125,-2.0114,-2.0137,-2.0133,-2.0126,-2.0131,-2.0177,-2.0185,-2.0158,-2.0239,-2.0209,-2.0216,-2.0233,-2.0242,-2.0249,-2.0247,-2.0127,0,0,0,0,0,-2.0013,-2.0044,-2.0057,-2.0105,-2.0114,-2.0118,-2.0134,-2.013,-2.0148,-2.0155,-2.0164,-2.018,-2.0207,-2.0225,-2.025,-2.0305,-2.0308,-2.033,-2.0337,-2.0343,-2.0349,-2.0377,-2.0387,-2.0283,-2.0283,-2.0283,0,0,-2.0042,-2.0055,-2.0075,-2.0112,-2.0125,-2.0156,-2.0124,-2.0159,-2.0181,-2.016,-2.0203,-2.0209,-2.0227,-2.0277,-2.0299,-2.0285,-2.0378,-2.0349,-2.0353,-2.0356,-2.0383,-2.0393,-2.0401,-2.0286,-2.0285,-2.0285,0,0,-2.011,-2.0124,-2.0164,-2.0178,-2.0198,-2.02,-2.021,-2.0226,-2.023,-2.0273,-2.0258,-2.0283,-2.033,-2.0343,-2.0356,-2.0427,-2.0413,-2.0435,-2.0473,-2.0501,-2.0509,-2.0516,-2.0541,-2.055,-2.044,-2.044,-2.044,0,-2.0143,-2.019,-2.0186,-2.0222,-2.0238,-2.022,-2.026,-2.0273,-2.03,-2.0311,-2.0294,-2.0351,-2.0362,-2.0414,-2.0431,-2.0442,-2.0452,-2.0433,-2.0508,-2.0516,-2.0522,-2.0546,-2.0555,-2.0443,-2.0443,-2.0442,-2.0442,0,-2.0229,-2.0262,-2.0292,-2.032,-2.0338,-2.0376,-2.0376,-2.0396,-2.0389,-2.0392,-2.0435,-2.0447,-2.0474,-2.0486,-2.048,-2.0537,-2.0527,-2.0509,-2.048,-2.0535,-2.0557,-2.0566,-2.0447,-2.0446,-2.0445,-2.0444,0,0,-2.0321,-2.0344,-2.0356,-2.0367,-2.0387,-2.0412,-2.0448,-2.0475,-2.0491,-2.0509,-2.0539,-2.0578,-2.0561,-2.0576,-2.057,-2.0595,-2.0649,-2.0574,-2.0574,-2.0588,-2.0712,-2.0725,-2.0736,-2.064,-2.0642,-2.0643,-2.071,0,-2.039,-2.0454,-2.045,-2.051,-2.0539,-2.0522,-2.0553,-2.0567,-2.0571,-2.0595,-2.0598,-2.0626,-2.0602,-2.0611,-2.0634,-2.0638,-2.0674,-2.0633,-2.0666,-2.0668,-2.0663,-2.0748,-2.0762,-2.0825,-2.0719,-2.0721,-2.0722,0,-2.048,-2.0502,-2.0565,-2.0579,-2.0592,-2.062,-2.0643,-2.0667,-2.0683,-2.0683,-2.0699,-2.0689,-2.0723,-2.0692,-2.0739,-2.0711,-2.0724,-2.0728,-2.073,-2.0733,-2.0699,-2.0753,-2.0845,-2.0855,-2.0735,-2.0734,-2.0733,0,-2.054,-2.0586,-2.0629,-2.0639,-2.0657,-2.0677,-2.0685,-2.0699,-2.0715,-2.0735,-2.0745,-2.0769,-2.0781,-2.0799,-2.0795,-2.0773,-2.0843,-2.0811,-2.0843,-2.0844,-2.086,-2.0859,-2.0955,-2.0868,-2.0867,-2.0867,-2.0867,0,-2.0618,-2.0657,-2.0656,-2.0683,-2.0725,-2.0719,-2.0761,-2.0767,-2.0779,-2.0805,-2.079,-2.0815,-2.0809,-2.0832,-2.0829,-2.0868,-2.0874,-2.0875,-2.0873,-2.0876,-2.0876,-2.0885,-2.0881,-2.087,-2.0869,-2.0869,-2.0868,0,-2.0694,-2.0695,-2.074,-2.0753,-2.0757,-2.0788,-2.0798,-2.0823,-2.0824,-2.0857,-2.0864,-2.0867,-2.0894,-2.0892,-2.0922,-2.092,-2.0968,-2.0961,-2.0963,-2.0962,-2.0994,-2.0991,-2.11,-2.1114,-2.1017,-2.1018,-2.1019,0,-2.0744,-2.0774,-2.079,-2.0806,-2.0816,-2.0844,-2.086,-2.0854,-2.0871,-2.089,-2.0912,-2.0938,-2.0959,-2.1002,-2.1006,-2.1029,-2.1023,-2.1059,-2.1026,-2.1028,-2.1023,-2.1022,-2.1024,-2.1066,-2.1067,-2.1068,-2.1069,0,-2.0833,-2.0831,-2.0856,-2.088,-2.09,-2.0918,-2.0935,-2.0949,-2.0945,-2.0965,-2.0993,-2.1009,-2.104,-2.1065,-2.1087,-2.1093,-2.108,-2.1079,-2.1088,-2.1091,-2.1091,-2.1092,-2.0981,-2.1077,-2.1076,-2.1075,-2.1075,-2.1075,-2.0897,-2.0922,-2.0937,-2.0964,-2.0976,-2.0992,-2.1015,-2.1019,-2.1043,-2.1068,-2.1063,-2.1094,-2.1107,-2.1134,-2.1143,-2.1167,-2.1153,-2.1166,-2.1169,-2.1173,-2.1177,-2.1087,-2.117,-2.117,-2.117,-2.117,-2.117,0,-2.0986,-2.0994,-2.1019,-2.1043,-2.1064,-2.1049,-2.1067,-2.1085,-2.1113,-2.1126,-2.1147,-2.1178,-2.1203,-2.1207,-2.123,-2.1248,-2.1242,-2.1254,-2.1253,-2.1255,-2.1187,-2.1177,-2.1258,-2.1258,-2.1258,-2.1258,-2.1258,-2.1258,-2.1034,-2.1075,-2.1075,-2.1122,-2.1129,-2.1161,-2.1172,-2.1185,-2.1196,-2.1232,-2.1252,-2.1255,-2.1265,-2.1288,-2.1309,-2.131,-2.1319,-2.1333,-2.1332,-2.1269,-2.126,-2.1251,-2.1242,-2.1335,-2.1335,-2.1397,-2.1398,-2.1398]}]]